Location: Alexandria
(38.8050°N, 77.0470°W)
Time: 00:05:52
(UTC-04:00)

Envisat - Visible Passes

Search period start: 18 October 2017 00:00
Search period end: 28 October 2017 00:00
Orbit: 764 x 766 km, 98.2° (Epoch: 17 October)

Date Brightness Start Highest point End Pass type
(mag) Time Alt. Az. Time Alt. Az. Time Alt. Az.
18 Oct 4.8 19:32:19 13° NE 19:32:19 13° NE 19:33:54 10° NNE visible
18 Oct 4.6 21:12:32 28° NNW 21:12:32 28° NNW 21:14:55 10° NNW visible
19 Oct 4.3 20:35:33 28° NNE 20:35:33 28° NNE 20:38:06 10° N visible
19 Oct 6.0 22:15:46 10° NW 22:15:46 10° NW 22:15:47 10° NW visible
20 Oct 4.5 19:58:34 19° NE 19:58:34 19° NE 20:00:42 10° NNE visible
20 Oct 5.3 21:38:47 18° NW 21:38:47 18° NW 21:40:15 10° NNW visible
21 Oct 4.7 21:01:48 25° NNW 21:01:48 25° NNW 21:03:50 10° NNW visible
22 Oct 4.5 20:24:49 23° NNE 20:24:49 23° NNE 20:26:51 10° N visible
22 Oct 6.0 22:05:02 11° NW 22:05:02 11° NW 22:05:11 10° NW visible
23 Oct 4.8 19:47:50 15° NE 19:47:50 15° NE 19:49:13 10° NNE visible
23 Oct 5.3 21:28:03 17° NNW 21:28:03 17° NNW 21:29:18 10° NNW visible
24 Oct 4.8 20:51:03 21° N 20:51:03 21° N 20:52:42 10° N visible
25 Oct 4.8 20:14:04 18° NNE 20:14:04 18° NNE 20:15:34 10° N visible
25 Oct 5.9 21:54:18 11° NW 21:54:18 11° NW 21:54:26 10° NW visible
26 Oct 5.0 19:37:04 11° NE 19:37:04 11° NE 19:37:34 10° NNE visible
26 Oct 5.3 21:17:18 16° NNW 21:17:18 16° NNW 21:18:17 10° NNW visible
27 Oct 5.0 20:40:18 17° N 20:40:18 17° N 20:41:32 10° N visible
